• In Hungary
  • List of Countries
  • For 7 days
  • Water Temperature
  • Satellite Maps
  • Weather Map
  • News
  • Weather Widgets
  • user-avatar
    Login

    Hourly Weather Kalinovka

    Today, 13 November, Tuesday

    Time Temperature Precipitation Wind Pressure Humidity
    00:00 -1°C° 0 mm 5 mps 750 mmHg 66%
    01:00 -1°C° 0 mm 5 mps 750 mmHg 65%
    02:00 -2°C° 0 mm 5 mps 750 mmHg 64%
    03:00 -2°C° 0 mm 5 mps 750 mmHg 63%
    04:00 -2°C° 0 mm 5 mps 750 mmHg 63%
    05:00 -2°C° 0 mm 5 mps 750 mmHg 62%
    06:00 -4°C° 0 mm 5 mps 750 mmHg 62%
    07:00 -4°C° 0 mm 5 mps 750 mmHg 62%
    08:00 -4°C° 0 mm 5 mps 750 mmHg 62%
    09:00 -2°C° 0 mm 5 mps 750 mmHg 58%
    10:00 -2°C° 0 mm 5 mps 750 mmHg 55%
    11:00 -1°C° 0 mm 5 mps 750 mmHg 51%
    12:00 0°C° 0 mm 5 mps 749 mmHg 50%
    13:00 +1°C° 0 mm 5 mps 749 mmHg 48%
    14:00 +1°C° 0 mm 5 mps 749 mmHg 47%
    15:00 0°C° 0 mm 5 mps 748 mmHg 49%
    16:00 0°C° 0 mm 4 mps 748 mmHg 51%
    17:00 -1°C° 0 mm 4 mps 748 mmHg 53%
    18:00 -1°C° 0 mm 4 mps 748 mmHg 54%
    19:00 -2°C° 0 mm 5 mps 747 mmHg 55%
    20:00 -2°C° 0 mm 5 mps 747 mmHg 56%
    21:00 -2°C° 0 mm 5 mps 747 mmHg 57%
    22:00 -2°C° 0 mm 5 mps 746 mmHg 57%
    23:00 -4°C° 0 mm 5 mps 746 mmHg 58%

    Tomorrow, 14 November, Wednesday

    Time Temperature Precipitation Wind Pressure Humidity
    00:00 -4°C° 0 mm 5 mps 746 mmHg 58%
    01:00 -4°C° 0 mm 5 mps 745 mmHg 59%
    02:00 -4°C° 0 mm 5 mps 745 mmHg 59%
    03:00 -4°C° 0 mm 5 mps 744 mmHg 61%
    04:00 -4°C° 0 mm 5 mps 744 mmHg 62%
    05:00 -4°C° 0 mm 5 mps 743 mmHg 63%
    06:00 -4°C° 0.9 mm 5 mps 743 mmHg 71%
    07:00 -4°C° 0.9 mm 5 mps 743 mmHg 79%
    08:00 -4°C° 0.9 mm 5 mps 743 mmHg 87%
    09:00 -2°C° 1.4 mm 5 mps 743 mmHg 89%
    10:00 -2°C° 1.4 mm 5 mps 743 mmHg 91%
    11:00 -2°C° 1.4 mm 5 mps 742 mmHg 93%
    12:00 -1°C° 0.2 mm 4 mps 742 mmHg 93%
    13:00 0°C° 0.2 mm 4 mps 742 mmHg 92%
    14:00 +2°C° 0.2 mm 3 mps 742 mmHg 92%
    15:00 +2°C° 0.1 mm 3 mps 742 mmHg 93%
    16:00 +2°C° 0.1 mm 3 mps 741 mmHg 94%
    17:00 +4°C° 0.1 mm 2 mps 741 mmHg 96%
    18:00 +4°C° 0 mm 2 mps 741 mmHg 96%
    19:00 +4°C° 0 mm 2 mps 741 mmHg 96%
    20:00 +4°C° 0 mm 2 mps 741 mmHg 95%
    21:00 +4°C° 0.1 mm 2 mps 741 mmHg 96%
    22:00 +4°C° 0.1 mm 2 mps 741 mmHg 96%
    23:00 +4°C° 0.1 mm 2 mps 741 mmHg 96%

    Day after tomorrow, 15 November, Thursday

    Time Temperature Precipitation Wind Pressure Humidity
    00:00 +4°C° 0.1 mm 2 mps 741 mmHg 96%
    01:00 +4°C° 0.1 mm 2 mps 741 mmHg 97%
    02:00 +4°C° 0.1 mm 2 mps 741 mmHg 97%
    03:00 +4°C° 0.1 mm 2 mps 741 mmHg 97%
    04:00 +3°C° 0.1 mm 3 mps 741 mmHg 97%
    05:00 +3°C° 0.1 mm 3 mps 741 mmHg 96%
    06:00 +3°C° 0.1 mm 3 mps 741 mmHg 96%
    07:00 +3°C° 0.1 mm 3 mps 742 mmHg 96%
    08:00 +3°C° 0.1 mm 3 mps 742 mmHg 96%
    09:00 +3°C° 0.1 mm 3 mps 743 mmHg 95%
    10:00 +3°C° 0.1 mm 3 mps 743 mmHg 93%
    11:00 +3°C° 0.1 mm 3 mps 743 mmHg 92%
    12:00 +3°C° 0 mm 3 mps 744 mmHg 90%
    13:00 +3°C° 0 mm 3 mps 744 mmHg 88%
    14:00 +3°C° 0 mm 3 mps 744 mmHg 86%
    15:00 +2°C° 0 mm 3 mps 745 mmHg 87%
    16:00 +2°C° 0 mm 3 mps 745 mmHg 87%
    17:00 +1°C° 0 mm 4 mps 745 mmHg 87%
    18:00 +1°C° 0 mm 4 mps 746 mmHg 87%
    19:00 0°C° 0 mm 4 mps 746 mmHg 86%
    20:00 0°C° 0 mm 4 mps 747 mmHg 86%
    21:00 0°C° 0 mm 4 mps 747 mmHg 86%
    22:00 -1°C° 0 mm 4 mps 748 mmHg 86%
    23:00 0°C° 0 mm 3 mps 748 mmHg 87%

    16 November, Friday

    Time Temperature Precipitation Wind Pressure Humidity
    00:00 -1°C° 0 mm 3 mps 748 mmHg 89%
    01:00 -1°C° 0 mm 3 mps 748 mmHg 91%
    02:00 -2°C° 0 mm 3 mps 748 mmHg 93%
    03:00 -2°C° 0 mm 3 mps 748 mmHg 92%
    04:00 -2°C° 0 mm 3 mps 749 mmHg 91%
    05:00 -4°C° 0 mm 3 mps 749 mmHg 90%
    06:00 -4°C° 0 mm 3 mps 749 mmHg 88%
    07:00 -4°C° 0 mm 3 mps 749 mmHg 85%
    08:00 -4°C° 0 mm 4 mps 750 mmHg 83%
    09:00 -3°C° 0 mm 4 mps 750 mmHg 76%
    10:00 -2°C° 0 mm 4 mps 750 mmHg 70%
    11:00 -1°C° 0 mm 4 mps 750 mmHg 63%
    12:00 0°C° 0 mm 4 mps 750 mmHg 61%
    13:00 0°C° 0 mm 4 mps 750 mmHg 60%
    14:00 +1°C° 0 mm 4 mps 750 mmHg 58%
    15:00 0°C° 0 mm 4 mps 750 mmHg 64%
    16:00 -2°C° 0 mm 4 mps 750 mmHg 69%
    17:00 -2°C° 0 mm 3 mps 750 mmHg 75%
    18:00 -3°C° 0 mm 4 mps 750 mmHg 76%
    19:00 -3°C° 0 mm 4 mps 750 mmHg 78%
    20:00 -4°C° 0 mm 4 mps 750 mmHg 79%
    21:00 -4°C° 0 mm 4 mps 750 mmHg 79%
    22:00 -4°C° 0 mm 3 mps 750 mmHg 78%
    23:00 -4°C° 0 mm 3 mps 750 mmHg 78%

    17 November, Saturday

    Time Temperature Precipitation Wind Pressure Humidity
    00:00 -4°C° 0 mm 3 mps 750 mmHg 77%
    01:00 -5°C° 0 mm 3 mps 750 mmHg 76%
    02:00 -5°C° 0 mm 3 mps 750 mmHg 75%
    03:00 -5°C° 0 mm 3 mps 750 mmHg 74%
    04:00 -5°C° 0 mm 3 mps 750 mmHg 73%
    05:00 -5°C° 0 mm 3 mps 750 mmHg 71%
    06:00 -5°C° 0 mm 3 mps 751 mmHg 70%
    07:00 -5°C° 0 mm 3 mps 751 mmHg 68%
    08:00 -5°C° 0 mm 3 mps 751 mmHg 66%
    09:00 -4°C° 0 mm 3 mps 751 mmHg 61%
    10:00 -2°C° 0 mm 3 mps 751 mmHg 56%
    11:00 -1°C° 0 mm 3 mps 751 mmHg 50%
    12:00 0°C° 0 mm 3 mps 751 mmHg 50%
    13:00 +1°C° 0 mm 3 mps 751 mmHg 49%
    14:00 +1°C° 0 mm 3 mps 750 mmHg 48%
    15:00 0°C° 0 mm 3 mps 750 mmHg 53%
    16:00 -1°C° 0 mm 3 mps 750 mmHg 57%
    17:00 -2°C° 0 mm 3 mps 750 mmHg 62%
    18:00 -3°C° 0 mm 2 mps 750 mmHg 62%
    19:00 -3°C° 0 mm 2 mps 750 mmHg 63%
    20:00 -4°C° 0 mm 2 mps 750 mmHg 63%
    21:00 -4°C° 0 mm 2 mps 750 mmHg 62%
    22:00 -4°C° 0 mm 2 mps 750 mmHg 61%
    23:00 -4°C° 0 mm 2 mps 749 mmHg 60%

    18 November, Sunday

    Time Temperature Precipitation Wind Pressure Humidity
    00:00 -4°C° 0 mm 2 mps 749 mmHg 59%
    01:00 -4°C° 0 mm 2 mps 749 mmHg 58%
    02:00 -4°C° 0 mm 2 mps 748 mmHg 58%
    03:00 -4°C° 0 mm 2 mps 748 mmHg 58%
    04:00 -4°C° 0 mm 2 mps 747 mmHg 59%
    05:00 -4°C° 0 mm 2 mps 746 mmHg 60%
    06:00 -5°C° 0 mm 3 mps 746 mmHg 61%
    07:00 -4°C° 0 mm 3 mps 745 mmHg 62%
    08:00 -4°C° 0 mm 3 mps 745 mmHg 63%
    09:00 -3°C° 0 mm 4 mps 744 mmHg 61%
    10:00 -1°C° 0 mm 4 mps 744 mmHg 58%
    11:00 0°C° 0 mm 5 mps 743 mmHg 56%
    12:00 0°C° 0 mm 5 mps 742 mmHg 57%
    13:00 0°C° 0 mm 5 mps 741 mmHg 58%
    14:00 +1°C° 0 mm 5 mps 741 mmHg 59%
    15:00 0°C° 0.4 mm 5 mps 740 mmHg 66%
    16:00 0°C° 0.4 mm 4 mps 739 mmHg 72%
    17:00 -1°C° 0.4 mm 4 mps 739 mmHg 79%
    18:00 0°C° 0.4 mm 3 mps 738 mmHg 84%
    19:00 0°C° 0.4 mm 3 mps 738 mmHg 88%
    20:00 0°C° 0.4 mm 3 mps 737 mmHg 93%
    21:00 0°C° 0.2 mm 3 mps 737 mmHg 94%
    22:00 -1°C° 0.2 mm 2 mps 737 mmHg 96%
    23:00 -1°C° 0.2 mm 2 mps 736 mmHg 97%
    Show more